Погода в Блечепсине

Россия / Республика Адыгея     44°49′17″N   40°29′46″E
темп.,
°C
ветер,
м/с
пор.,
м/с
влажн.,
%
обл.,
%
осадки,
мм/ч
давл.,
гПа
погр.,
м
19 апреля, пн
пн1900:00+11ю1193100 0.1 101510
03:00+11з1196100 0.3 101516
06:00+11зюз2298100 0.6 101647
09:00+13юв3694100 3.1 1015252
12:00+17з3482100 0.3 1014418
15:00+15сз4891100 1.6 1013243
18:00+14ссв2296100 0.6 1014290
21:00+14вюв3696100 1.0 1014204
20 апреля, вт
вт2000:00+13всв51195100 0.3 1010301
03:00+13всв51096100 0.4 1008301
06:00+11в3697100 0.0 1006172
09:00+17вюв4678100 0.1 1003232
12:00+19зсз677769 0.0 1005899
15:00+18з7117452 0.3 10061030
18:00+14з51273100 0.2 1009781
21:00+13зюз71650100 0.4 1012731
21 апреля, ср
ср2100:00+12зюз71552100 0.1 1012779
03:00+9зсз41087100 2.3 1015471
06:00+8зсз389337 0.0 1017390
09:00+11з4581100 0.0 1018796
12:00+13зюз2372100 0.1 1019921
15:00+14ююв117034 0.3 1019792
18:00+13ю118111 1.6 102088
21:00+9ю228927 1.9 102221
22 апреля, чт
чт2200:00+9зюз228974 0.0 102213
03:00+7з2293100 0.0 102226
06:00+8з1190100 0.0 102338
09:00+12с117720 0.0 1023403
12:00+15с226491 0.0 10231335
15:00+15ссв2368100 0.1 1022784
18:00+13всв248240 2.2 1022130
21:00+9вюв239022 2.4 102327
23 апреля, пт
пт2300:00+8ююв22905 0.0 102311
03:00+7юв01915 0.0 102310
06:00+7юз11930 0.0 102310
09:00+13сз11790 0.0 1023462
12:00+16с226411 0.0 10211157
15:00+18сз235552 0.1 10201793
18:00+16ссв12695 0.1 102019
21:00+11юв22785 0.1 102013